| time (UTC) | temp F | wind direction | speed MPH | gust MPH | rain 1hr in | rain 24hr in | rain mn in | humidity % | barometer mb |
| 20260505120621 | 0 | 268 | 0.0 | 0.0 | 0.00 | 0.00 | 0.00 | 1011.1 | |
| 20260505120117 | 0 | 268 | 0.0 | 1.0 | 0.00 | 0.00 | 0.00 | 1011.1 | |
| 20260505115612 | 0 | 296 | 1.0 | 1.0 | 0.00 | 0.00 | 0.00 | 1011.0 | |
| 20260505115109 | 0 | 296 | 0.0 | 0.0 | 0.00 | 0.00 | 0.00 | 1011.1 | |
| 20260505114606 | 0 | 297 | 0.0 | 0.0 | 0.00 | 0.00 | 0.00 | 1011.0 | |
| 20260505114102 | 0 | 297 | 0.0 | 1.0 | 0.00 | 0.00 | 0.00 | 1010.8 | |
| 20260505113559 | 0 | 302 | 0.0 | 1.0 | 0.00 | 0.00 | 0.00 | 1010.8 | |
| 20260505113055 | 0 | 272 | 0.0 | 0.0 | 0.00 | 0.00 | 0.00 | 1010.9 | |
| 20260505112552 | 0 | 272 | 0.0 | 0.0 | 0.00 | 0.00 | 0.00 | 1010.7 | |
| 20260505112051 | 0 | 265 | 0.0 | 1.0 | 0.00 | 0.00 | 0.00 | 1010.8 | |
| 20260505111550 | 0 | 231 | 0.0 | 0.0 | 0.00 | 0.00 | 0.00 | 1010.7 | |
| 20260505111046 | 0 | 255 | 0.0 | 0.0 | 0.00 | 0.00 | 0.00 | 1010.8 | |
| 20260505110543 | 0 | 254 | 0.0 | 0.0 | 0.00 | 0.00 | 0.00 | 1010.8 | |
| 20260505102015 | 0 | 257 | 1.0 | 2.0 | 0.00 | 0.00 | 0.00 | 1010.2 | |
| 20260505101513 | 0 | 291 | 2.0 | 2.0 | 0.00 | 0.00 | 0.00 | 1010.0 | |
| 20260505101010 | 0 | 276 | 0.0 | 0.0 | 0.00 | 0.00 | 0.00 | 1010.0 | |
| 20260505100507 | 0 | 272 | 2.0 | 2.0 | 0.00 | 0.00 | 0.00 | 1010.1 | |
| 20260505100003 | 0 | 286 | 1.0 | 2.0 | 0.00 | 0.00 | 0.00 | 1010.1 | |
| 20260505095459 | 0 | 283 | 1.0 | 2.0 | 0.00 | 0.00 | 0.00 | 1009.8 | |
| 20260505094955 | 0 | 269 | 0.0 | 0.0 | 0.00 | 0.00 | 0.00 | 1009.9 | |
| 20260505094453 | 0 | 269 | 0.0 | 0.0 | 0.00 | 0.00 | 0.00 | 1009.8 | |
| 20260505093949 | 0 | 267 | 1.0 | 2.0 | 0.00 | 0.00 | 0.00 | 1009.9 | |
| 20260505093446 | 0 | 262 | 0.0 | 0.0 | 0.00 | 0.00 | 0.00 | 1009.9 | |
| 20260505092943 | 0 | 257 | 0.0 | 2.0 | 0.00 | 0.00 | 0.00 | 1010.0 | |
| 20260505092440 | 0 | 264 | 1.0 | 2.0 | 0.00 | 0.00 | 0.00 | 1009.9 | |
| 20260505091938 | 0 | 267 | 1.0 | 3.0 | 0.00 | 0.00 | 0.00 | 1009.9 | |
| 20260505091435 | 0 | 267 | 2.0 | 4.0 | 0.00 | 0.00 | 0.00 | 1009.8 | |
| 20260505090933 | 0 | 276 | 2.0 | 3.0 | 0.00 | 0.00 | 0.00 | 1009.9 | |
| 20260505090431 | 0 | 264 | 4.0 | 6.0 | 0.00 | 0.00 | 0.00 | 1009.7 | |
| 20260505085928 | 0 | 225 | 6.0 | 7.0 | 0.00 | 0.00 | 0.00 | 1009.8 | |
| 20260505085426 | 0 | 232 | 5.0 | 8.0 | 0.00 | 0.00 | 0.00 | 1009.7 | |
| 20260505084924 | 0 | 261 | 4.0 | 6.0 | 0.00 | 0.00 | 0.00 | 1009.8 | |
| 20260505084422 | 0 | 246 | 2.0 | 6.0 | 0.00 | 0.00 | 0.00 | 1009.8 | |
| 20260505083920 | 0 | 208 | 6.0 | 9.0 | 0.00 | 0.00 | 0.00 | 1009.6 | |
| 20260505083417 | 0 | 256 | 3.0 | 4.0 | 0.00 | 0.00 | 0.00 | 1009.6 | |
| 20260505082913 | 0 | 216 | 4.0 | 6.0 | 0.00 | 0.00 | 0.00 | 1009.5 | |
| 20260505082409 | 0 | 216 | 4.0 | 8.0 | 0.00 | 0.00 | 0.00 | 1009.6 | |
| 20260505081906 | 0 | 245 | 4.0 | 7.0 | 0.00 | 0.00 | 0.00 | 1009.6 | |
| 20260505081357 | 0 | 268 | 3.0 | 4.0 | 0.00 | 0.00 | 0.00 | 1009.8 | |
| 20260505080854 | 0 | 266 | 2.0 | 3.0 | 0.00 | 0.00 | 0.00 | 1009.7 | |
| 20260505080350 | 0 | 224 | 2.0 | 3.0 | 0.00 | 0.00 | 0.00 | 1009.8 | |
| 20260505075846 | 0 | 243 | 4.0 | 6.0 | 0.00 | 0.00 | 0.00 | 1009.6 | |
| 20260505075343 | 0 | 260 | 1.0 | 3.0 | 0.00 | 0.00 | 0.00 | 1009.7 | |
| 20260505074840 | 0 | 251 | 1.0 | 4.0 | 0.00 | 0.00 | 0.00 | 1009.5 | |
| 20260505074337 | 0 | 199 | 3.0 | 6.0 | 0.00 | 0.00 | 0.00 | 1009.4 | |
| 20260505073834 | 0 | 220 | 4.0 | 6.0 | 0.00 | 0.00 | 0.00 | 1009.4 | |
| 20260505073332 | 0 | 284 | 2.0 | 2.0 | 0.00 | 0.00 | 0.00 | 1009.4 | |
| 20260505072829 | 0 | 262 | 1.0 | 2.0 | 0.00 | 0.00 | 0.00 | 1009.4 | |
| 20260505072325 | 0 | 277 | 1.0 | 3.0 | 0.00 | 0.00 | 0.00 | 1009.4 | |
| 20260505071821 | 0 | 261 | 2.0 | 4.0 | 0.00 | 0.00 | 0.00 | 1009.3 | |
| 20260505071317 | 0 | 263 | 2.0 | 3.0 | 0.00 | 0.00 | 0.00 | 1009.4 | |
| 20260505070815 | 0 | 260 | 2.0 | 3.0 | 0.00 | 0.00 | 0.00 | 1009.6 | |
| 20260505070311 | 0 | 243 | 1.0 | 4.0 | 0.00 | 0.00 | 0.00 | 1009.2 | |
| 20260505065806 | 0 | 237 | 3.0 | 6.0 | 0.00 | 0.00 | 0.00 | 1009.4 | |
| 20260505065304 | 0 | 216 | 3.0 | 4.0 | 0.00 | 0.00 | 0.00 | 1009.3 | |
| 20260505064801 | 0 | 262 | 3.0 | 4.0 | 0.00 | 0.00 | 0.00 | 1009.6 | |
| 20260505064258 | 0 | 222 | 2.0 | 4.0 | 0.00 | 0.00 | 0.00 | 1009.5 | |
| 20260505063755 | 0 | 249 | 3.0 | 4.0 | 0.00 | 0.00 | 0.00 | 1009.5 | |
| 20260505063252 | 0 | 245 | 2.0 | 4.0 | 0.00 | 0.00 | 0.00 | 1009.5 | |
| 20260505062749 | 0 | 224 | 2.0 | 6.0 | 0.00 | 0.00 | 0.00 | 1009.5 | |
| 20260505062246 | 0 | 223 | 4.0 | 4.0 | 0.00 | 0.00 | 0.00 | 1009.8 | |
| 20260505061743 | 0 | 228 | 5.0 | 6.0 | 0.00 | 0.00 | 0.00 | 1009.7 | |
| 20260505061241 | 0 | 245 | 3.0 | 4.0 | 0.00 | 0.00 | 0.00 | 1009.7 | |
| 20260505060738 | 0 | 221 | 4.0 | 6.0 | 0.00 | 0.00 | 0.00 | 1009.6 | |
| 20260505060235 | 0 | 210 | 7.0 | 9.0 | 0.00 | 0.00 | 0.00 | 1009.6 | |
| 20260505055730 | 0 | 244 | 3.0 | 6.0 | 0.00 | 0.00 | 0.00 | 1009.7 | |
| 20260505055227 | 0 | 220 | 2.0 | 6.0 | 0.00 | 0.00 | 0.00 | 1009.8 | |
| 20260505054724 | 0 | 233 | 3.0 | 6.0 | 0.00 | 0.00 | 0.00 | 1009.7 | |
| 20260505054222 | 0 | 239 | 3.0 | 4.0 | 0.00 | 0.00 | 0.00 | 1010.0 | |
| 20260505053720 | 0 | 196 | 4.0 | 4.0 | 0.00 | 0.00 | 0.00 | 1009.7 | |
| 20260505053216 | 0 | 252 | 2.0 | 6.0 | 0.00 | 0.00 | 0.00 | 1009.8 | |
| 20260505052713 | 0 | 234 | 1.0 | 2.0 | 0.00 | 0.00 | 0.00 | 1009.7 | |
| 20260505052210 | 0 | 212 | 3.0 | 7.0 | 0.00 | 0.00 | 0.00 | 1009.9 | |
| 20260505051707 | 0 | 246 | 3.0 | 8.0 | 0.00 | 0.00 | 0.00 | 1009.7 | |
| 20260505051205 | 0 | 228 | 3.0 | 4.0 | 0.00 | 0.00 | 0.00 | 1009.7 | |
| 20260505050658 | 0 | 242 | 2.0 | 4.0 | 0.00 | 0.00 | 0.00 | 1009.8 | |
| 20260505050155 | 0 | 254 | 2.0 | 6.0 | 0.00 | 0.00 | 0.00 | 1009.4 | |
| 20260505041625 | 0 | 217 | 5.0 | 8.0 | 0.00 | 0.00 | 0.00 | 1009.3 | |
| 20260505041123 | 0 | 193 | 5.0 | 11.0 | 0.00 | 0.00 | 0.00 | 1009.4 | |
| 20260505040619 | 0 | 203 | 5.0 | 6.0 | 0.00 | 0.00 | 0.00 | 1009.2 | |
| 20260505040117 | 0 | 237 | 4.0 | 9.0 | 0.00 | 0.01 | 0.01 | 1009.2 | |
| 20260505035613 | 0 | 225 | 6.0 | 10.0 | 0.00 | 0.01 | 0.01 | 1009.2 | |
| 20260505035109 | 0 | 249 | 3.0 | 8.0 | 0.00 | 0.01 | 0.01 | 1009.0 | |
| 20260505034606 | 0 | 243 | 4.0 | 8.0 | 0.00 | 0.01 | 0.01 | 1009.1 | |
| 20260505034103 | 0 | 210 | 5.0 | 10.0 | 0.00 | 0.01 | 0.01 | 1008.8 | |
| 20260505033600 | 0 | 212 | 6.0 | 9.0 | 0.00 | 0.01 | 0.01 | 1008.9 | |
| 20260505033058 | 0 | 221 | 4.0 | 11.0 | 0.00 | 0.01 | 0.01 | 1008.7 | |
| 20260505032556 | 0 | 261 | 6.0 | 8.0 | 0.00 | 0.01 | 0.01 | 1008.9 | |
| 20260505032051 | 0 | 218 | 6.0 | 11.0 | 0.00 | 0.01 | 0.01 | 1008.6 | |
| 20260505031549 | 0 | 234 | 7.0 | 10.0 | 0.00 | 0.01 | 0.01 | 1008.7 | |
| 20260505031045 | 0 | 234 | 6.0 | 8.0 | 0.00 | 0.01 | 0.01 | 1008.5 | |
| 20260505030542 | 0 | 180 | 9.0 | 13.0 | 0.00 | 0.01 | 0.01 | 1008.4 | |
| 20260505030038 | 0 | 204 | 9.0 | 10.0 | 0.00 | 0.01 | 0.01 | 1008.5 | |
| 20260505025534 | 0 | 210 | 4.0 | 9.0 | 0.00 | 0.01 | 0.01 | 1008.6 | |
| 20260505025033 | 0 | 214 | 3.0 | 11.0 | 0.00 | 0.01 | 0.01 | 1008.6 | |
| 20260505024530 | 0 | 236 | 6.0 | 8.0 | 0.00 | 0.01 | 0.01 | 1008.3 | |
| 20260505024027 | 0 | 244 | 7.0 | 8.0 | 0.00 | 0.01 | 0.01 | 1008.2 | |
| 20260505023524 | 0 | 204 | 3.0 | 6.0 | 0.00 | 0.01 | 0.01 | 1008.2 | |
| 20260505023022 | 0 | 177 | 5.0 | 8.0 | 0.00 | 0.01 | 0.01 | 1008.3 | |
| 20260505022519 | 0 | 227 | 6.0 | 8.0 | 0.00 | 0.01 | 0.01 | 1008.3 | |
| 20260505022016 | 0 | 198 | 4.0 | 6.0 | 0.00 | 0.01 | 0.01 | 1008.3 | |
| 20260505021512 | 0 | 214 | 5.0 | 6.0 | 0.00 | 0.01 | 0.01 | 1008.3 | |
| 20260505021009 | 0 | 188 | 8.0 | 11.0 | 0.00 | 0.01 | 0.01 | 1008.1 | |
| 20260505020503 | 0 | 234 | 9.0 | 11.0 | 0.00 | 0.01 | 0.01 | 1008.0 | |
| 20260505020000 | 0 | 206 | 7.0 | 9.0 | 0.00 | 0.01 | 0.01 | 1008.0 | |
| 20260505015458 | 0 | 197 | 6.0 | 10.0 | 0.00 | 0.01 | 0.01 | 1007.8 | |
| 20260505014954 | 0 | 182 | 7.0 | 15.0 | 0.00 | 0.01 | 0.01 | 1007.8 | |
| 20260505014451 | 0 | 234 | 7.0 | 10.0 | 0.00 | 0.01 | 0.01 | 1007.8 | |
| 20260505013949 | 0 | 210 | 7.0 | 9.0 | 0.00 | 0.01 | 0.01 | 1008.0 | |
| 20260505013446 | 0 | 208 | 7.0 | 13.0 | 0.00 | 0.01 | 0.01 | 1007.8 | |
| 20260505012943 | 0 | 194 | 7.0 | 9.0 | 0.00 | 0.01 | 0.01 | 1008.0 | |
| 20260505012441 | 0 | 178 | 4.0 | 9.0 | 0.00 | 0.01 | 0.01 | 1007.9 | |
| 20260505011938 | 0 | 199 | 6.0 | 8.0 | 0.00 | 0.01 | 0.01 | 1008.0 | |
| 20260505011433 | 0 | 203 | 5.0 | 10.0 | 0.00 | 0.01 | 0.01 | 1007.9 | |
| 20260505010930 | 0 | 216 | 4.0 | 7.0 | 0.00 | 0.01 | 0.01 | 1008.1 | |
| 20260505010426 | 0 | 227 | 5.0 | 7.0 | 0.00 | 0.01 | 0.01 | 1008.0 | |
| 20260505005922 | 0 | 205 | 5.0 | 7.0 | 0.00 | 0.01 | 0.01 | 1008.0 | |
| 20260505005420 | 0 | 212 | 5.0 | 11.0 | 0.00 | 0.01 | 0.01 | 1008.0 | |
| 20260505004917 | 0 | 226 | 7.0 | 9.0 | 0.00 | 0.01 | 0.01 | 1008.3 | |
| 20260505004413 | 0 | 219 | 5.0 | 7.0 | 0.00 | 0.01 | 0.01 | 1008.0 | |
| 20260505003910 | 0 | 210 | 4.0 | 7.0 | 0.00 | 0.01 | 0.01 | 1008.2 | |
| 20260505003407 | 0 | 218 | 4.0 | 7.0 | 0.00 | 0.01 | 0.01 | 1008.2 | |
| 20260505002904 | 0 | 224 | 6.0 | 9.0 | 0.00 | 0.01 | 0.01 | 1008.3 | |
| 20260505002400 | 0 | 213 | 5.0 | 8.0 | 0.00 | 0.01 | 0.01 | 1008.2 | |
| 20260505001859 | 0 | 249 | 6.0 | 8.0 | 0.00 | 0.01 | 0.01 | 1008.2 | |
| 20260505001356 | 0 | 229 | 4.0 | 7.0 | 0.00 | 0.01 | 0.01 | 1008.1 | |
| 20260505000853 | 0 | 235 | 4.0 | 7.0 | 0.00 | 0.01 | 0.01 | 1008.2 | |
| 20260505000351 | 0 | 208 | 3.0 | 8.0 | 0.00 | 0.01 | 0.01 | 1008.2 | |
| 20260504235847 | 0 | 214 | 6.0 | 7.0 | 0.00 | 0.01 | 0.01 | 1008.2 | |
| 20260504235344 | 0 | 195 | 6.0 | 8.0 | 0.00 | 0.01 | 0.01 | 1008.2 | |
| 20260504234840 | 0 | 231 | 5.0 | 10.0 | 0.00 | 0.01 | 0.01 | 1008.2 | |
| 20260504234338 | 0 | 226 | 6.0 | 9.0 | 0.00 | 0.01 | 0.01 | 1008.3 | |
| 20260504233835 | 0 | 218 | 6.0 | 10.0 | 0.00 | 0.01 | 0.01 | 1008.4 | |
| 20260504233330 | 0 | 196 | 6.0 | 9.0 | 0.00 | 0.01 | 0.01 | 1008.3 | |
| 20260504232827 | 0 | 216 | 4.0 | 7.0 | 0.00 | 0.01 | 0.01 | 1008.4 | |
| 20260504232324 | 0 | 262 | 4.0 | 8.0 | 0.00 | 0.01 | 0.01 | 1008.6 | |
| 20260504231821 | 0 | 234 | 5.0 | 10.0 | 0.00 | 0.01 | 0.01 | 1008.5 | |
| 20260504231318 | 0 | 219 | 3.0 | 6.0 | 0.00 | 0.01 | 0.01 | 1008.6 | |
| 20260504230814 | 0 | 254 | 3.0 | 4.0 | 0.00 | 0.01 | 0.01 | 1008.6 | |
| 20260504230312 | 0 | 219 | 7.0 | 11.0 | 0.00 | 0.01 | 0.01 | 1008.7 | |
| 20260504225811 | 0 | 248 | 4.0 | 8.0 | 0.00 | 0.01 | 0.01 | 1008.7 | |
| 20260504225306 | 0 | 225 | 7.0 | 10.0 | 0.00 | 0.01 | 0.01 | 1008.5 | |
| 20260504224804 | 0 | 223 | 5.0 | 7.0 | 0.00 | 0.01 | 0.01 | 1008.9 | |
| 20260504224301 | 0 | 205 | 3.0 | 4.0 | 0.00 | 0.01 | 0.01 | 1008.8 | |
| 20260504223757 | 0 | 222 | 5.0 | 8.0 | 0.00 | 0.01 | 0.01 | 1008.8 | |
| 20260504223253 | 0 | 205 | 9.0 | 10.0 | 0.00 | 0.01 | 0.01 | 1008.8 | |
| 20260504222750 | 0 | 251 | 4.0 | 11.0 | 0.00 | 0.01 | 0.01 | 1008.7 | |
| 20260504222246 | 0 | 249 | 5.0 | 13.0 | 0.00 | 0.01 | 0.01 | 1008.7 | |
| 20260504221744 | 0 | 252 | 6.0 | 9.0 | 0.00 | 0.01 | 0.01 | 1008.7 | |
| 20260504221242 | 0 | 255 | 6.0 | 8.0 | 0.00 | 0.01 | 0.01 | 1008.6 | |
| 20260504220738 | 0 | 241 | 4.0 | 7.0 | 0.00 | 0.01 | 0.01 | 1008.8 | |
| 20260504220235 | 0 | 242 | 4.0 | 11.0 | 0.00 | 0.01 | 0.01 | 1008.7 | |
| 20260504215732 | 0 | 208 | 9.0 | 14.0 | 0.00 | 0.01 | 0.01 | 1008.6 | |
| 20260504215229 | 0 | 236 | 8.0 | 11.0 | 0.00 | 0.01 | 0.01 | 1008.6 | |
| 20260504214725 | 0 | 230 | 10.0 | 14.0 | 0.00 | 0.01 | 0.01 | 1008.8 | |
| 20260504214221 | 0 | 236 | 10.0 | 13.0 | 0.00 | 0.01 | 0.01 | 1008.6 | |
| 20260504213718 | 0 | 229 | 6.0 | 11.0 | 0.00 | 0.01 | 0.01 | 1008.6 | |
| 20260504213215 | 0 | 214 | 8.0 | 18.0 | 0.00 | 0.01 | 0.01 | 1008.7 | |
| 20260504212712 | 0 | 222 | 7.0 | 15.0 | 0.00 | 0.01 | 0.01 | 1008.6 | |
| 20260504212208 | 0 | 238 | 9.0 | 16.0 | 0.00 | 0.01 | 0.01 | 1008.5 | |
| 20260504211706 | 0 | 219 | 10.0 | 14.0 | 0.00 | 0.01 | 0.01 | 1008.4 | |
| 20260504211202 | 0 | 221 | 6.0 | 10.0 | 0.00 | 0.01 | 0.01 | 1008.5 | |
| 20260504210659 | 0 | 255 | 8.0 | 14.0 | 0.00 | 0.01 | 0.01 | 1008.3 | |
| 20260504210156 | 0 | 260 | 6.0 | 10.0 | 0.00 | 0.01 | 0.01 | 1008.5 | |
| 20260504205653 | 0 | 240 | 4.0 | 9.0 | 0.00 | 0.01 | 0.01 | 1008.6 | |
| 20260504205150 | 0 | 218 | 10.0 | 14.0 | 0.00 | 0.01 | 0.01 | 1008.6 | |
| 20260504204649 | 0 | 257 | 8.0 | 13.0 | 0.00 | 0.01 | 0.01 | 1008.6 | |
| 20260504204147 | 0 | 231 | 9.0 | 14.0 | 0.00 | 0.01 | 0.01 | 1008.6 | |
| 20260504203645 | 0 | 238 | 8.0 | 22.0 | 0.00 | 0.01 | 0.01 | 1008.6 | |
| 20260504203143 | 0 | 264 | 5.0 | 8.0 | 0.00 | 0.01 | 0.01 | 1008.8 | |
| 20260504202637 | 0 | 240 | 6.0 | 14.0 | 0.00 | 0.01 | 0.01 | 1008.7 | |
| 20260504202135 | 0 | 224 | 8.0 | 11.0 | 0.00 | 0.01 | 0.01 | 1009.0 | |
| 20260504201631 | 0 | 160 | 4.0 | 7.0 | 0.00 | 0.01 | 0.01 | 1008.9 | |
| 20260504201130 | 0 | 254 | 7.0 | 10.0 | 0.00 | 0.01 | 0.01 | 1009.2 | |
| 20260504200626 | 0 | 245 | 8.0 | 13.0 | 0.00 | 0.01 | 0.01 | 1009.4 | |
| 20260504200123 | 0 | 209 | 10.0 | 14.0 | 0.00 | 0.01 | 0.01 | 1009.3 | |
| 20260504195618 | 0 | 179 | 7.0 | 10.0 | 0.00 | 0.01 | 0.01 | 1009.2 | |
| 20260504195114 | 0 | 218 | 8.0 | 13.0 | 0.00 | 0.01 | 0.01 | 1009.6 | |
| 20260504194612 | 0 | 228 | 7.0 | 11.0 | 0.00 | 0.01 | 0.01 | 1009.5 | |
| 20260504194107 | 0 | 267 | 8.0 | 13.0 | 0.00 | 0.01 | 0.01 | 1009.8 | |
| 20260504193604 | 0 | 299 | 13.0 | 15.0 | 0.00 | 0.01 | 0.01 | 1009.9 | |
| 20260504193103 | 0 | 235 | 5.0 | 10.0 | 0.00 | 0.01 | 0.01 | 1009.7 | |
| 20260504192601 | 0 | 249 | 8.0 | 10.0 | 0.00 | 0.01 | 0.01 | 1009.7 | |
| 20260504192059 | 0 | 209 | 6.0 | 9.0 | 0.00 | 0.01 | 0.01 | 1009.9 | |
| 20260504191556 | 0 | 221 | 4.0 | 9.0 | 0.00 | 0.01 | 0.01 | 1010.0 | |
| 20260504191052 | 0 | 221 | 7.0 | 9.0 | 0.00 | 0.01 | 0.01 | 1010.1 | |
| 20260504190549 | 0 | 226 | 7.0 | 16.0 | 0.00 | 0.01 | 0.01 | 1010.3 | |
| 20260504190045 | 0 | 212 | 10.0 | 13.0 | 0.00 | 0.01 | 0.01 | 1010.1 | |
| 20260504185542 | 0 | 260 | 7.0 | 13.0 | 0.00 | 0.01 | 0.01 | 1010.3 | |
| 20260504185038 | 0 | 228 | 8.0 | 11.0 | 0.00 | 0.01 | 0.01 | 1010.2 | |
| 20260504184534 | 0 | 231 | 7.0 | 9.0 | 0.00 | 0.01 | 0.01 | 1010.3 | |
| 20260504184029 | 0 | 221 | 8.0 | 11.0 | 0.00 | 0.01 | 0.01 | 1010.3 | |
| 20260504183527 | 0 | 259 | 8.0 | 13.0 | 0.00 | 0.01 | 0.01 | 1010.2 | |
| 20260504183025 | 0 | 259 | 7.0 | 10.0 | 0.00 | 0.01 | 0.01 | 1010.3 | |
| 20260504182521 | 0 | 249 | 7.0 | 14.0 | 0.00 | 0.01 | 0.01 | 1010.7 | |
| 20260504182019 | 0 | 230 | 6.0 | 13.0 | 0.00 | 0.01 | 0.01 | 1010.7 | |
| 20260504181516 | 0 | 218 | 8.0 | 14.0 | 0.00 | 0.01 | 0.01 | 1010.8 | |
| 20260504181014 | 0 | 240 | 12.0 | 15.0 | 0.00 | 0.01 | 0.01 | 1010.5 | |
| 20260504180513 | 0 | 197 | 7.0 | 13.0 | 0.00 | 0.01 | 0.01 | 1010.7 | |
| 20260504180011 | 0 | 220 | 6.0 | 11.0 | 0.00 | 0.01 | 0.01 | 1010.7 | |
| 20260504175508 | 0 | 217 | 10.0 | 13.0 | 0.00 | 0.01 | 0.01 | 1010.6 | |
| 20260504175005 | 0 | 216 | 9.0 | 13.0 | 0.00 | 0.01 | 0.01 | 1010.8 | |
| 20260504174503 | 0 | 222 | 8.0 | 11.0 | 0.00 | 0.01 | 0.01 | 1010.9 | |
| 20260504174000 | 0 | 226 | 8.0 | 15.0 | 0.00 | 0.01 | 0.01 | 1010.9 | |
| 20260504173456 | 0 | 240 | 8.0 | 10.0 | 0.00 | 0.01 | 0.01 | 1010.8 | |
| 20260504172954 | 0 | 218 | 6.0 | 10.0 | 0.00 | 0.01 | 0.01 | 1010.8 | |
| 20260504172449 | 0 | 261 | 6.0 | 9.0 | 0.00 | 0.01 | 0.01 | 1011.0 | |
| 20260504171946 | 0 | 218 | 6.0 | 9.0 | 0.00 | 0.01 | 0.01 | 1011.1 | |
| 20260504171443 | 0 | 260 | 11.0 | 13.0 | 0.00 | 0.01 | 0.01 | 1011.2 | |
| 20260504170940 | 0 | 193 | 9.0 | 11.0 | 0.00 | 0.01 | 0.01 | 1011.3 | |
| 20260504170436 | 0 | 221 | 5.0 | 9.0 | 0.00 | 0.01 | 0.01 | 1011.3 | |
| 20260504160356 | 0 | 229 | 8.0 | 11.0 | 0.00 | 0.01 | 0.01 | 1011.8 | |
| 20260504150820 | 0 | 212 | 11.0 | 17.0 | 0.00 | 0.01 | 0.01 | 1012.5 | |
| 20260504150317 | 0 | 188 | 8.0 | 13.0 | 0.00 | 0.01 | 0.01 | 1012.6 | |
| 20260504141247 | 0 | 248 | 6.0 | 8.0 | 0.00 | 0.01 | 0.01 | 1013.0 | |
| 20260504140743 | 0 | 193 | 6.0 | 7.0 | 0.00 | 0.01 | 0.01 | 1013.2 | |
| 20260504140239 | 0 | 209 | 8.0 | 9.0 | 0.00 | 0.01 | 0.01 | 1013.2 | |
| 20260504130708 | 57 | 257 | 1.0 | 2.0 | 0.00 | 0.01 | 0.01 | 85 | 1013.7 |
| 20260504130204 | 0 | 307 | 0.0 | 0.0 | 0.00 | 0.01 | 0.01 | 1013.7 |